Showing default

COSMOS 220, 3229

Orbit data source: Space-Track

COSMOS 220, 3229 is a payload satellite owned by OKB-10 (CIS) in LEO that was launched on Tue, 07 May 1968 UTC via a KOSMOS 11K65M launch vehicle from the Plesetsk Missile And Space Complex (PKMTR). Payload-class satellites include a variety of spacecraft equipped with specific instruments for various scientific and technological missions. These include communications satellites like Starlink; space stations such as the ISS; scientific satellites like the Hubble; Earth observation satellites from companies like Planet Labs, Umbra, and HawkEye 360; GPS; miniature CubeSats for education and research; and military/defense satellites.

Loading next visibility...
Identifier
3229, 1968-040A
Orbit
LEO
Country
Flag of CISCIS
Related business
Manufacturer
OKB-10
Mission
Spacecraft
Bus & Motor
KAUR-1 11F617, Unknown motor
Mass
775 kg wet, 775 kg dry
Launch date (UTC)
1968-05-07 (58 years ago)
Launch vehicle
KOSMOS 11K65M
Launch site
Plesetsk Missile And Space Complex (PKMTR)
Object type
Payload
Rocket body
Debris
Shape & HBR
Unknown
Radar Cross Section
Large (>1 m²)

Expand to show TLE details & history
Last TLE update: 11 hours ago

TLE from 11 hours ago
0 COSMOS 220
1 03229U 68040A   26033.56215721  .00000875  00000-0  11763-3 0  9998
2 03229  74.0245  86.7536 0033712  22.1584 338.1040 14.80606990 70462
Epoch: 2026-02-02T13:29Z
TLE epoch observation values (Epoch: 2026-02-02T13:29:30.382Z)
Latitude
-0.00008°
Longitude
111.62132°
Altitude
608.167 km
Speed
7.567 km/s
True Right ascension
05h 47m 00s
True Declination
0° 00' 00"
Sunlit
Object was in full shadow at epoch
Visualization orbit readout
Latitude
Unknown
Longitude
Unknown
Altitude
Unknown
Speed
Unknown
Apparent Right ascension
Unknown
Apparent Declination
Unknown
Sunlit
N/A
Visualization observer readout
Local Sidereal Time
02:44:19
Azimuth
Unknown
Elevation
Unknown
Doppler factor
Unknown
Orbital elements
Apogee altitude
648.594 km
Perigee altitude
601.376 km
Semi-major axis
7,003.122 km
Eccentricity
0.00337
Inclination
74.0245°
RAAN
86.7536°
Arg. of periapsis
22.1584°
True anomaly
337.95937°
Mean anomaly
338.104°
Eccentric anomaly
338.03174°
Mean motion
3.70344 °/min
Orbital period
97.21 mins
BSTAR
0.00011763
Loading maneuver chart data...
Computing Atmospheric mass density...
Loading historical data...
Loading historical data...
Loading historical data...
Loading historical data...
Loading historical data...
Loading historical data...
Loading historical data...
Other satellites on launch #40 in the year 1968 (1968-05-07 UTC)

Documentation

Showing up to 5 results
|